FW7576 Weather Reports


Display with metric or nautical units.
time (UTC)temp
F
wind
direction
speed
MPH
gust
MPH
rain 1hr
in
rain 24hr
in
rain mn
in
humidity
%
barometer
mb
20260506023037 50 304 2.0 8.0 0.00 0.00 0.00 38 1010.5
20260506021536 50 340 2.0 5.0 0.00 0.00 0.00 37 1010.1
20260506020040 51 322 1.0 6.0 0.00 0.00 0.00 36 1009.9
20260506014535 51 303 2.0 7.0 0.00 0.00 0.00 35 1009.6
20260506013058 52 271 3.0 8.0 0.00 0.00 0.00 35 1009.3
20260506011541 52 345 3.0 13.0 0.00 0.00 0.00 34 1009.0
20260506010038 53 304 3.0 13.0 0.00 0.00 0.00 33 1008.9
20260506004536 53 29 3.0 8.0 0.00 0.00 0.00 33 1008.8
20260506003041 54 348 4.0 14.0 0.00 0.00 0.00 32 1008.6
20260506001544 54 347 3.0 16.0 0.00 0.00 0.00 32 1008.6
20260506000040 55 329 2.0 10.0 0.00 0.00 0.00 31 1008.4
20260505234539 55 245 5.0 11.0 0.00 0.00 0.00 31 1008.5
20260505233036 55 271 3.0 11.0 0.00 0.00 0.00 32 1008.6
20260505231538 55 225 4.0 11.0 0.00 0.00 0.00 31 1008.4
20260505230050 56 335 5.0 12.0 0.00 0.00 0.00 31 1008.4
20260505224540 56 332 4.0 9.0 0.00 0.00 0.00 31 1008.4
20260505223053 56 293 6.0 12.0 0.00 0.00 0.00 31 1008.2
20260505221539 56 294 6.0 17.0 0.00 0.00 0.00 30 1007.9
20260505220042 57 287 6.0 18.0 0.00 0.00 0.00 31 1008.0
20260505214536 56 319 6.0 16.0 0.00 0.00 0.00 32 1008.1
20260505213050 56 307 7.0 16.0 0.00 0.00 0.00 32 1008.2
20260505211535 56 203 3.0 11.0 0.00 0.00 0.00 33 1007.9
20260505210032 56 303 7.0 18.0 0.00 0.00 0.00 30 1008.1
20260505204540 56 294 5.0 16.0 0.00 0.00 0.00 32 1008.2
20260505203044 56 336 5.0 11.0 0.00 0.00 0.00 33 1008.4
20260505201537 56 265 6.0 18.0 0.00 0.00 0.00 33 1008.5
20260505200035 56 325 6.0 16.0 0.00 0.00 0.00 34 1008.5
20260505194540 55 279 5.0 13.0 0.00 0.00 0.00 34 1008.7
20260505193045 55 264 5.0 12.0 0.00 0.00 0.00 36 1008.6
20260505191544 55 298 8.0 15.0 0.00 0.00 0.00 36 1008.9
20260505190040 54 304 5.0 14.0 0.00 0.00 0.00 36 1008.7
20260505184540 54 272 4.0 13.0 0.00 0.00 0.00 37 1008.7
20260505183038 54 255 5.0 16.0 0.00 0.00 0.00 37 1008.6
20260505181539 54 297 6.0 16.0 0.00 0.00 0.00 34 1008.5
20260505180038 55 281 5.0 12.0 0.00 0.00 0.00 32 1008.2
20260505174535 54 243 7.0 15.0 0.00 0.00 0.00 37 1008.2
20260505173046 54 321 4.0 16.0 0.00 0.00 0.00 37 1008.5
20260505171539 54 229 9.0 15.0 0.00 0.00 0.00 37 1008.3
20260505170039 54 264 7.0 16.0 0.00 0.00 0.00 37 1008.0
20260505164549 53 283 7.0 19.0 0.00 0.00 0.00 36 1007.8
20260505163102 53 240 8.0 19.0 0.00 0.00 0.00 37 1008.4
20260505161544 53 62 4.0 17.0 0.00 0.00 0.00 41 1008.2
20260505153049 52 255 9.0 17.0 0.00 0.00 0.00 40 1008.0
20260505151543 52 243 7.0 15.0 0.00 0.00 0.00 41 1008.2
20260505124540 47 283 3.0 7.0 0.00 0.00 0.00 46 1008.7
20260505123037 47 288 4.0 8.0 0.00 0.00 0.00 48 1008.0
20260505121537 46 247 2.0 7.0 0.00 0.00 0.00 50 1008.7
20260505120040 45 257 3.0 5.0 0.00 0.00 0.00 49 1008.1
20260505114544 45 0 1.0 4.0 0.00 0.00 0.00 49 1007.5
20260505113037 45 355 0.0 2.0 0.00 0.00 0.00 50 1006.8
20260505111549 45 283 2.0 6.0 0.00 0.00 0.00 48 1007.3
20260505101539 46 295 3.0 9.0 0.00 0.00 0.00 46 1006.3
20260505100042 46 333 2.0 7.0 0.00 0.00 0.00 46 1005.9
20260505094536 47 310 3.0 10.0 0.00 0.00 0.00 46 1006.2
20260505093035 47 316 2.0 8.0 0.00 0.00 0.00 48 1006.3
20260505091551 47 288 3.0 9.0 0.00 0.00 0.00 47 1006.2
20260505090050 47 337 4.0 9.0 0.00 0.00 0.00 48 1005.7
20260505084536 48 330 3.0 6.0 0.00 0.00 0.00 48 1005.3
20260505083042 48 359 5.0 13.0 0.00 0.00 0.00 47 1005.1
20260505081550 49 4 4.0 9.0 0.00 0.00 0.00 48 1004.8
20260505080041 49 337 3.0 14.0 0.00 0.00 0.00 47 1004.2
20260505074559 50 328 6.0 11.0 0.00 0.00 0.00 46 1004.0
20260505073038 51 21 3.0 16.0 0.00 0.00 0.00 46 1004.0
20260505071536 51 338 3.0 11.0 0.00 0.00 0.00 47 1003.8
20260505070036 52 317 2.0 14.0 0.00 0.00 0.00 46 1003.5
20260505064537 53 327 5.0 17.0 0.00 0.00 0.00 45 1003.2
20260505063041 53 282 3.0 12.0 0.00 0.00 0.00 45 1003.1
20260505061601 54 321 6.0 15.0 0.00 0.00 0.00 44 1003.0
20260505060044 55 308 3.0 10.0 0.00 0.00 0.00 44 1003.1
20260505054541 56 12 4.0 12.0 0.00 0.00 0.00 42 1002.9
20260505053035 58 340 6.0 18.0 0.00 0.00 0.00 40 1002.4
20260505051541 58 302 4.0 9.0 0.00 0.00 0.00 37 1002.0
20260505041535 61 326 4.0 12.0 0.00 0.00 0.00 33 1000.7
20260505040041 62 11 6.0 12.0 0.00 0.00 0.00 32 1000.4
20260505034540 63 290 3.0 11.0 0.00 0.00 0.00 31 1000.5
20260505033046 63 286 4.0 11.0 0.00 0.00 0.00 31 1000.6
20260505031535 64 309 5.0 11.0 0.00 0.00 0.00 31 1000.4
20260505030036 64 270 6.0 16.0 0.00 0.00 0.00 32 1000.0
20260505024602 65 320 5.0 18.0 0.00 0.00 0.00 33 999.7